DECAYED

NOAA 16 DEB, 41518 (Decayed)

Orbit data source: Space-Track

NOAA 16 DEB, 41518 was space debris in SSO originally from a launch on Thu, 21 Sep 2000 UTC launched from the Air Force Western Test Range (AFWTR). Debris objects in space refer to the collection of defunct objects orbiting the Earth. Examples of debris include non-operational satellites, rocket bodies, and fragments generated from explosions, collisions, or faulty payload assembly.

Not visible in the next 10 days
Identifier
41518, 2000-055MS
Orbit
Decayed
Country
Flag of USUS
Related business
Manufacturer
Unknown
Mission
Decayed spacecraft
Bus & Motor
Unknown
Mass
Unknown
Launch date (UTC)
2000-09-21 (25 years ago)
Launch vehicle
Unknown
Launch site
Air Force Western Test Range (AFWTR)
Object type
Payload
Rocket body
Debris
Shape & HBR
Unknown shape, 0.1 m
Radar Cross Section
Small (<0.1 m²)

Expand to show TLE details & history
Last TLE update: 7 months ago

TLE from 7 months ago
0 NOAA 16 DEB
1 41518U 00055MS  25186.90679915  .01530237  00000-0  15678-1 0  9996
2 41518  98.7794 350.4808 0022654 298.9792  60.9191 15.61759299480448
Epoch: 2025-07-05T21:45Z
TLE epoch observation values (Epoch: 2025-07-05T21:45:47.446Z)
Latitude
0.00003°
Longitude
99.89499°
Altitude
378.259 km
Speed
7.687 km/s
True Right ascension
23h 21m 55s
True Declination
0° 00' 00"
Sunlit
Object was in full shadow at epoch
Visualization orbit readout
Latitude
Unknown
Longitude
Unknown
Altitude
Unknown
Speed
Unknown
Apparent Right ascension
Unknown
Apparent Declination
Unknown
Sunlit
N/A
Visualization observer readout
Local Sidereal Time
00:43:02
Azimuth
Unknown
Elevation
Unknown
Doppler factor
Unknown
Orbital elements
Apogee altitude
394.86 km
Perigee altitude
364.242 km
Semi-major axis
6,757.688 km
Eccentricity
0.00227
Inclination
98.7794°
RAAN
350.4808°
Arg. of periapsis
298.9792°
True anomaly
61.14628°
Mean anomaly
60.9191°
Eccentric anomaly
61.03266°
Mean motion
3.90702 °/min
Orbital period
92.14 mins
BSTAR
0.015678
Loading maneuver chart data...
Computing Atmospheric mass density...
Loading historical data...
Loading historical data...
Loading historical data...
Loading historical data...
Loading historical data...
Loading historical data...
Loading historical data...

Documentation

Showing up to 5 results
|